Zurück zum Katalog

ONEWEB-0373

AktivKommunikationPO
NORAD 49299·PAYLOAD·🇬🇧 United Kingdom

Gestartet Oct 14, 2021 von Vostochny Cosmodrome

Loading…

Nächste Überflüge (nächste 24 Stunden)

TLE

AktuellSource: CelesTrak SupGP

Epoche: Sep 14, 2026, 15:56 UTC

1 49299C 21090W   26257.66442546 -.00002725  00000+0 -67090-2 0  2572
2 49299  87.9141 256.5927 0001988  92.4340 306.1662 13.20776381    12

Verfolge ONEWEB-0373 in Echtzeit mit AllMySat

Download on the App Store